Location: Millers Ferry
(32.0990°N, 87.3680°W)
Time: 04:26:42
(UTC-05:00)

CSL-04 Rocket - Visible Passes

Search period start: 23 August 2014 00:00
Search period end: 02 September 2014 00:00
Orbit: 806 x 861 km, 98.9° (Epoch: 22 August)

Date Brightness Start Highest point End Pass type
(mag) Time Alt. Az. Time Alt. Az. Time Alt. Az.
23 Aug 5.4 04:24:07 10° NE 04:28:39 29° E 04:33:09 10° SSE visible
24 Aug 6.0 04:08:04 10° NE 04:11:48 19° E 04:15:31 10° SE visible
24 Aug 4.1 05:47:20 10° N 05:52:12 40° WNW 05:57:04 10° SW visible
25 Aug 6.3 03:52:40 10° ENE 03:54:54 13° E 03:57:09 10° ESE visible
25 Aug 3.7 05:30:22 10° N 05:35:32 59° WNW 05:40:42 10° SSW visible
26 Aug 3.6 05:13:32 10° NNE 05:18:49 87° WNW 05:24:06 10° SSW visible
27 Aug 4.0 04:56:51 10° NNE 05:02:04 63° ESE 05:07:18 10° S visible
28 Aug 4.7 04:40:18 10° NNE 04:45:17 42° E 04:50:16 10° S visible
29 Aug 5.4 04:23:58 10° NE 04:28:28 28° E 04:32:59 10° SSE visible
30 Aug 6.0 04:07:55 10° NE 04:11:37 19° E 04:15:19 10° SE visible
30 Aug 4.1 05:47:08 10° N 05:52:02 40° WNW 05:56:56 10° SW visible
31 Aug 6.3 03:52:32 10° ENE 03:54:44 13° E 03:56:56 10° ESE visible
31 Aug 3.7 05:30:10 10° N 05:35:21 60° WNW 05:40:33 10° SSW visible
01 Sep 3.6 05:13:21 10° NNE 05:18:39 88° WNW 05:23:57 10° SSW visible
